Back to catalog

SL-6 R/B(2)

AliveHEO
NORAD 11909·ROCKET BODY·🇷🇺 Russia

Launched Jul 18, 1980 from Plesetsk Cosmodrome

Loading…

Next Passes (next 24 hours)

TLE

FreshSource: Space-Track

Epoch: Sep 7, 2026, 09:10 UTC

1 11909U 80063D   26250.38217288  .00000980  00000-0  00000-0 0  9998
2 11909  63.8430   8.0669 7335030 277.3715  12.3052  1.96854514331247

Track SL-6 R/B(2) in real time with AllMySat

Download on the App Store